ANZ173 NZAA-YPPH

Flight info

Callsign ANZ173
Flight time N/A
Altitude 36000
Route PEBLU N759 MIKEG/N0485F380 N759 ML Q158 COBEL/N0476F400 Q158 KABLI
Aircraft B789/H-SDE1E2E3FGHIJ2J3J4J5M1RWXY/LB1D1

Departure

Time 2026-05-06 06:48
Airport Auckland International Airport (NZAA)

Arrival

Time N/A
Airport Perth International Airport (YPPH)
Time Latitude Longitude Altitude Speed Heading
2026-05-06 06:02 -37.00832 174.78146 31 ft 0 kts 40°
2026-05-06 06:37 -37.00835 174.78143 31 ft 3 kts 40°
2026-05-06 06:38 -37.00855 174.78121 29 ft 4 kts 40°
2026-05-06 06:38 -37.00876 174.78099 31 ft 4 kts 40°
2026-05-06 06:38 -37.00897 174.78078 30 ft 3 kts 40°
2026-05-06 06:38 -37.00900 174.78074 29 ft 7 kts 40°
2026-05-06 06:42 -37.00892 174.78086 28 ft 3 kts 55°
2026-05-06 06:42 -37.00885 174.78130 31 ft 7 kts 91°
2026-05-06 06:42 -37.00892 174.78166 31 ft 2 kts 108°
2026-05-06 06:42 -37.00901 174.78180 31 ft 2 kts 144°
2026-05-06 06:43 -37.00921 174.78191 30 ft 4 kts 163°
2026-05-06 06:43 -37.00958 174.78218 31 ft 8 kts 141°
2026-05-06 06:43 -37.01020 174.78272 31 ft 13 kts 159°
2026-05-06 06:43 -37.01096 174.78259 31 ft 11 kts 214°
2026-05-06 06:44 -37.01143 174.78157 31 ft 16 kts 253°
2026-05-06 06:44 -37.01183 174.78004 31 ft 21 kts 251°
2026-05-06 06:44 -37.01235 174.77819 31 ft 20 kts 251°
2026-05-06 06:44 -37.01272 174.77682 31 ft 18 kts 251°
2026-05-06 06:45 -37.01319 174.77513 31 ft 20 kts 251°
2026-05-06 06:45 -37.01352 174.77392 31 ft 14 kts 251°
2026-05-06 06:45 -37.01389 174.77258 31 ft 16 kts 251°
2026-05-06 06:45 -37.01424 174.77146 31 ft 13 kts 235°
2026-05-06 06:46 -37.01517 174.77097 31 ft 17 kts 187°
2026-05-06 06:46 -37.01592 174.77101 31 ft 10 kts 150°
2026-05-06 06:46 -37.01610 174.77178 31 ft 11 kts 75°
2026-05-06 06:46 -37.01581 174.77266 31 ft 6 kts 71°
2026-05-06 06:47 -37.01578 174.77276 31 ft 6 kts 71°
2026-05-06 06:47 -37.01530 174.77451 31 ft 47 kts 71°
2026-05-06 06:47 -37.01350 174.78103 31 ft 110 kts 71°
2026-05-06 06:47 -37.01037 174.79203 205 ft 144 kts 69°
2026-05-06 06:48 -37.00733 174.80348 881 ft 134 kts 71°
2026-05-06 06:48 -37.00441 174.81450 1348 ft 139 kts 69°
2026-05-06 06:48 -37.00113 174.82623 1783 ft 146 kts 68°
2026-05-06 06:48 -36.99778 174.83833 2300 ft 147 kts 67°
2026-05-06 06:49 -36.99435 174.85063 2695 ft 153 kts 67°
2026-05-06 06:49 -36.99080 174.86338 3126 ft 157 kts 67°
2026-05-06 06:49 -36.98720 174.87639 3565 ft 160 kts 67°
2026-05-06 06:49 -36.98347 174.88973 3949 ft 168 kts 68°
2026-05-06 06:50 -36.98032 174.90470 4138 ft 191 kts 83°
2026-05-06 06:50 -36.98557 174.92099 4197 ft 221 kts 130°
2026-05-06 06:50 -36.99916 174.93019 4668 ft 228 kts 160°
2026-05-06 06:50 -37.01444 174.93550 5327 ft 227 kts 165°
2026-05-06 06:51 -37.03025 174.93813 5734 ft 236 kts 186°
2026-05-06 06:51 -37.04497 174.92944 6208 ft 236 kts 221°
2026-05-06 06:51 -37.05357 174.91238 6741 ft 232 kts 253°
2026-05-06 06:51 -37.05835 174.89314 7280 ft 235 kts 255°
2026-05-06 06:52 -37.06363 174.87315 7599 ft 249 kts 253°
2026-05-06 06:52 -37.06951 174.85218 7917 ft 262 kts 253°
2026-05-06 06:52 -37.07570 174.83013 8241 ft 274 kts 253°
2026-05-06 06:52 -37.08203 174.80725 8686 ft 283 kts 253°
2026-05-06 06:53 -37.08843 174.78401 9352 ft 285 kts 253°
2026-05-06 06:53 -37.09495 174.76042 10102 ft 287 kts 253°
2026-05-06 06:53 -37.10222 174.73685 10637 ft 296 kts 247°
2026-05-06 06:53 -37.11206 174.71336 10947 ft 313 kts 243°
2026-05-06 06:54 -37.12316 174.68911 11272 ft 328 kts 243°
2026-05-06 06:54 -37.13433 174.66341 11655 ft 341 kts 244°
2026-05-06 06:54 -37.14538 174.63682 12282 ft 345 kts 244°
2026-05-06 06:54 -37.15663 174.61006 12947 ft 349 kts 244°
2026-05-06 06:55 -37.16818 174.58310 13620 ft 352 kts 243°
2026-05-06 06:55 -37.17983 174.55584 14294 ft 356 kts 244°
2026-05-06 06:55 -37.19134 174.52866 14873 ft 358 kts 244°
2026-05-06 06:55 -37.20307 174.50091 15489 ft 361 kts 244°
2026-05-06 06:56 -37.21493 174.47289 16117 ft 363 kts 243°
2026-05-06 06:56 -37.22683 174.44484 16736 ft 366 kts 243°
2026-05-06 06:56 -37.23878 174.41657 17371 ft 368 kts 243°
2026-05-06 06:56 -37.25083 174.38803 17954 ft 371 kts 243°
2026-05-06 06:57 -37.26296 174.35930 18576 ft 374 kts 243°
2026-05-06 06:57 -37.27505 174.33063 19075 ft 377 kts 243°
2026-05-06 06:57 -37.28733 174.30149 19592 ft 379 kts 242°
2026-05-06 06:57 -37.29970 174.27210 20107 ft 381 kts 242°
2026-05-06 06:58 -37.31210 174.24260 20651 ft 383 kts 242°
2026-05-06 06:58 -37.32458 174.21280 21137 ft 385 kts 243°
2026-05-06 06:58 -37.33409 174.18120 21574 ft 389 kts 252°
2026-05-06 06:58 -37.34191 174.14853 22038 ft 392 kts 252°